Location: Ertinghausen
(51.6624°N, 9.7874°E)
Time: 13:47:45
(UTC+00:00)

Cosmos 1980 Rocket - Pass Details

Date: 23 May 2024
Orbit: 827 x 851 km, 71.0° (Epoch: 12 June)

Event Time Altitude Azimuth Distance (km) Brightness Sun altitude
Rises 01:04:30 0° 321° (NW) 3,428 5.7 -14.0°
Reaches altitude 10° 01:07:30 10° 306° (NW) 2,487 4.8 -13.8°
Maximum altitude 01:11:39 21° 259° (W) 1,819 3.6 -13.5°
Enters shadow 01:13:55 17° 229° (SW) 2,036 3.6 -13.3°
